FUNCUBE-1 (AO-73) (39444 NORAD) Tracking and Keplerian Element Data

This shows tracking and keplerian element data for the satellite.

Feedback or suggestion? Click here.




ElementValue
Catalog39444
NameFUNCUBE-1 (AO-73)
Epoch Orbit58767
Epoch Day286.86511007
Epoch Year2024
RAAN243.9196
Inclination97.7325
Eccentricity0.0047745
Argument of Perigee107.8159
Mean Anonmoly252.8279
Mean Motion14.95306335
Decay Rate0.00017944
L11 39444U 13066AE 24286.86511007 .00017944 00000+0 15939-2 0 9993
L22 39444 97.7325 243.9196 0047745 107.8159 252.8279 14.95306335587678



Live tracking and technical data element details for FUNCUBE-1 (AO-73) (NORAD 39444). FUNCUBE-1 (AO-73) can be tracked NOW for your location showing map with azimuth and elevation plus other details from your city location.







IsCatalogInMostPopularTable: catalog: 39444, numindb: 614
Update: records affected: 1



GetName: 39444 FUNCUBE-1 (AO-73)

Hit Count: updated at: Tue, 03 Dec 2024 02:15:29 GMT